Miscellaneous Local Product
Issued by NWS Hastings, NE

Home | Current Version | Previous Version | Text Only | Print | Product List | Glossary Off
Versions: 1 2 3 4 5 6 7 8 9 10 11 12 13 14 15 16 17 18 19 20 21 22 23 24 25 26 27 28 29 30 31 32 33 34 35 36 37 38 39 40 41 42 43 44 45 46 47 48 49 50

000
AXUS43 KGID 251702
MISGRI

GID CWA HOURLY WEATHER ROUNDUP
NATIONAL WEATHER SERVICE HASTINGS NE
1100 AM CST TUE NOV 25 2014

NOTE: "FAIR" INDICATES FEW OR NO CLOUDS BELOW 12,000 FEET WITH NO
SIGNIFICANT WEATHER AND/OR OBSTRUCTIONS TO VISIBILITY.

...SOUTH CENTRAL NEBRASKA...

CITY           SKY/WX    TMP DP  RH WIND       PRES   REMARKS
GRAND ISLAND   SUNNY     37  25  61 SW9       30.06F WCI  30
HASTINGS       SUNNY     37  25  61 SW8       30.06F WCI  31
KEARNEY        MOSUNNY   36  23  60 SW8       30.06F WCI  29
ORD            PTSUNNY   35  23  61 S6        30.00F WCI  30
YORK           SUNNY     37  27  65 SW12      30.07F WCI  30
AURORA         SUNNY     37  27  68 SW9       30.06F WCI  30
LEXINGTON      PTSUNNY   35  22  58 W9        30.04S WCI  28
HOLDREGE       PTSUNNY   36  22  57 SW7       30.05F WCI  30
HEBRON         SUNNY     38  24  57 SW8       30.12F WCI  32

...NEBRASKA PANHANDLE...

CITY           SKY/WX    TMP DP  RH WIND       PRES   REMARKS
CHADRON        CLOUDY    39  21  48 SW8       29.83F WCI  33
ALLIANCE       CLOUDY    36  17  46 SW16      29.86F WCI  26
SCOTTSBLUFF    CLOUDY    40  21  46 W13       29.87F WCI  32
SIDNEY         CLOUDY    37  16  42 SW14      29.92F WCI  28

...WESTERN AND NORTH CENTRAL NEBRASKA...

CITY           SKY/WX    TMP DP  RH WIND       PRES   REMARKS
VALENTINE      CLOUDY    33  25  72 SW8       29.89F WCI  26
AINSWORTH      CLOUDY    32  24  72 S10       29.91F WCI  24
ONEILL         PTSUNNY   38  29  70 SW9       29.97F WCI  32
BROKEN BOW     CLOUDY    35  22  58 SW10      29.99F WCI  27
IMPERIAL       CLOUDY    35  20  54 S13       29.98F WCI  26
NORTH PLATTE   CLOUDY    35  24  64 SW9       29.98F WCI  28
MCCOOK         PTSUNNY   42  21  43 SW12      30.04F

...EASTERN NEBRASKA...

CITY           SKY/WX    TMP DP  RH WIND       PRES   REMARKS
NORFOLK        SUNNY     37  26  64 SW12      30.03F WCI  29
SO SIOUX CITY  MOSUNNY   32  15  49 SE9       30.08F WCI  24
TEKAMAH        MOSUNNY   34  17  50 S10       30.11F WCI  26
COLUMBUS       SUNNY     34  23  64 SW7       30.08F WCI  28
ALBION         MOSUNNY   35  25  67 SW5       30.03F WCI  31
OMAHA EPPLEY   MOSUNNY   32  10  40 S8        30.14F WCI  25
OFFUTT AFB     SUNNY     34  10  36 S9        30.13F WCI  26
MILLARD        SUNNY     34  15  46 S5        30.13F WCI  30
LINCOLN        SUNNY     36  24  62 S6        30.12F WCI  31
NEBRASKA CITY  SUNNY     33  10  39 SW9       30.14F WCI  25
BEATRICE       SUNNY     36  25  64 S7        30.12F WCI  30
FALLS CITY     SUNNY     35  10  35 SW8       30.17F WCI  29

...NORTHERN KANSAS...

CITY           SKY/WX    TMP DP  RH WIND       PRES   REMARKS
GOODLAND       CLOUDY    39  14  36 SW23G32   30.04F WCI  28
HILL CITY      MOSUNNY   44  21  40 SW15G24   30.10F
NORTON         SUNNY     43  18  36 S12       30.05F
PHILLIPSBURG   SUNNY     43  25  49 SW6       30.10F
SMITH CENTER   SUNNY     36  23  60 SW9       30.12F WCI  29
BELOIT         SUNNY     39  28  65 S6        30.13F WCI  35
HAYS           SUNNY     43  21  42 SW14      30.14F
RUSSELL        SUNNY     43  25  49 SW18      30.13F
CONCORDIA      SUNNY     39  26  59 SW12      30.13F WCI  32
SALINA         SUNNY     43  24  47 SW12      30.19F
TOPEKA         SUNNY     37   9  31 VRB5      30.22F WCI  33



USA.gov is the U.S. government's official web portal to all federal, state and local government web resources and services.